Temperature
16 16 16 16 16 17 17 17 17 17 17 17 17 17 16 16 16 16 16 16 16 16 16 16 16 15 15 15 15 15 15 15 15 15 15 15 15 15 15 15 15 14 14
16 16 16 16 16 16 17 17 17 17 17 17 16 16 16 16 16 16 16 16 16 16 15 15 15 15 15 15 15 15 15 15 15 14 14 14 14 15 14 14 14 14 14
16 16 16 16 16 16 17 17 17 17 17 16 16 16 16 16 16 16 16 16 16 15 15 15 15 15 15 15 15 15 15 14 14 14 14 14 14 14 14 14 14 14 14
16 16 16 16 16 16 16 16 16 16 16 16 16 16 16 16 16 16 16 16 15 15 15 15 15 15 15 15 15 14 14 14 14 14 14 14 14 14 14 14 14 14 14
15 16 16 16 16 16 16 16 16 16 16 16 16 16 16 16 16 15 15 16 15 15 15 15 15 15 15 15 14 14 14 14 14 14 14 14 14 14 14 14 14 14 14
15 15 15 15 16 16 16 16 16 16 16 16 16 16 16 15 15 15 15 15 15 15 15 15 15 15 15 15 14 14 14 14 14 14 14 14 14 14 14 14 14 14 14
15 15 15 15 15 16 16 16 16 16 15 15 15 15 15 15 15 15 15 15 15 15 15 15 15 15 15 15 14 14 14 14 14 14 14 14 14 14 14 14 14 14 14
15 15 15 15 15 15 15 15 15 15 15 15 15 15 15 15 15 15 15 15 15 15 15 15 15 15 15 14 14 14 14 14 14 14 14 14 14 14 14 14 14 14 13
14 14 15 15 15 15 15 15 15 15 15 15 15 15 15 15 15 15 15 15 15 15 15 15 15 14 14 14 14 14 14 14 14 14 14 14 14 14 14 14 14 14 13
14 14 14 14 14 15 15 15 15 15 15 15 15 15 15 15 15 15 15 15 15 15 14 14 14 14 14 14 14 14 14 14 14 14 14 14 14 13 14 14 13 13 13
14 14 14 14 14 14 14 15 15 15 15 15 15 15 15 15 15 15 15 14 14 14 14 14 14 14 14 14 14 14 14 14 13 13 13 13 13 13 13 13 13 13 13
13 14 14 14 14 14 14 14 14 14 14 14 14 14 14 14 14 14 14 14 14 14 14 14 14 14 14 14 13 13 13 13 13 13 13 13 13 13 13 13 13 13 13
13 13 13 14 14 14 14 14 14 14 14 14 14 14 14 14 14 14 14 14 14 14 14 14 14 13 13 13 13 13 13 13 13 13 13 13 13 13 13 13 13 13 13
13 13 13 13 14 14 14 14 14 14 14 14 14 14 14 14 14 14 14 14 13 13 13 13 13 13 13 13 13 13 13 13 13 13 13 13 13 13 13 13 13 13 13
13 13 13 13 13 13 13 14 13 13 14 14 14 13 13 13 13 13 13 13 13 13 13 13 13 13 13 13 13 13 13 13 12 12 12 12 12 12 12 12 12 12 13
13 13 13 13 13 13 13 13 13 13 13 13 13 13 13 13 13 13 13 13 13 13 12 12 12 13 12 12 12 12 12 12 12 12 12 12 12 12 12 12 12 12 12
13 13 13 13 13 13 13 13 13 13 13 13 13 13 13 12 12 12 12 12 12 12 12 12 12 12 12 12 12 12 12 12 12 12 12 12 12 12 12 12 12 12 12
12 12 12 12 12 13 13 13 12 12 12 12 12 12 12 12 12 12 12 12 12 12 12 12 12 12 12 12 12 12 12 11 11 11 11 11 11 11 12 11 11 11 11
12 12 12 12 12 12 12 12 12 12 12 12 12 12 12 12 11 11 11 11 11 11 11 11 11 11 11 11 11 11 11 11 11 11 11 11 11 11 11 11 11 11 11
12 12 12 12 12 12 12 12 12 12 12 11 11 11 11 11 11 11 11 11 11 11 11 11 11 11 11 11 11 11 11 11 10 11 11 10 10 10 10 10 10 11 11
11 11 11 11 11 11 11 11 11 11 11 11 11 11 11 11 11 11 11 11 10 10 10 10 10 10 10 10 10 10 10 10 10 10 10 10 10 10 10 10 10 10 10
11 11 11 11 11 11 11 11 11 11 11 11 10 10 10 10 10 10 10 10 10 10 10 10 10 10 10 10 9 9 9 9 10 10 10 10 10 10 10 10 10 10 10
11 11 11 11 11 11 10 10 10 10 10 10 10 10 10 10 10 10 10 10 10 10 10 10 9 9 9 9 9 8 8 8 9 9 9 9 9 9 9 9 9 9 9
11 11 11 10 10 10 10 10 10 10 10 10 10 10 10 9 9 9 9 9 9 9 9 9 9 9 9 9 8 8 8 7 7 8 8 9 9 9 8 8 8 8 8
11 10 10 10 10 10 10 9 9 9 9 9 9 9 9 9 9 9 9 9 9 9 9 8 8 8 8 8 8 8 7 7 7 7 7 8 8 8 8 8 8 8 8
10 10 10 10 10 10 9 9 9 9 9 9 9 9 9 9 9 8 8 8 8 8 8 8 8 8 8 8 7 7 7 7 7 6 6 7 7 8 8 7 7 7 7
Wind_Speed
3 3 8 9 9 10 11 11 11 12 11 11 11 11 10 10 9 9 8 8 7 7 7 7 8 8 8 8 8 8 8 8 8 8 8 8 8 8 8 8 7 7 8
4 5 8 9 10 10 10 11 11 11 10 10 10 10 9 9 8 7 7 7 7 6 7 7 7 7 7 7 7 7 7 7 7 7 6 6 6 6 6 6 6 6 7
5 6 8 10 10 10 10 10 10 10 10 9 9 9 8 8 7 7 6 6 6 6 6 7 7 7 6 5 5 5 5 5 5 5 5 4 3 4 5 5 4 5 5
6 7 8 10 11 11 10 10 10 10 9 8 8 8 7 7 7 6 6 6 5 6 5 5 6 5 5 4 4 4 4 4 4 3 3 2 1 2 3 3 3 3 4
6 7 8 10 11 10 10 9 9 9 8 8 7 7 7 6 6 6 5 5 5 4 4 4 4 4 4 3 3 3 2 3 3 3 2 1 1 1 2 1 1 1 2
5 6 8 9 10 10 9 9 8 8 8 7 7 6 6 5 5 5 5 4 4 3 3 3 3 2 2 2 2 2 2 1 2 2 1 1 2 2 2 2 2 2 2
4 6 8 8 9 9 9 8 8 8 7 7 6 6 5 5 5 4 4 4 3 3 2 2 1 1 1 1 1 1 2 1 1 1 1 2 3 4 4 4 3 3 3
5 6 7 8 8 9 9 8 7 7 7 6 6 6 5 5 5 4 4 3 2 2 2 1 1 1 1 1 2 1 1 1 1 2 2 4 5 5 5 5 5 4 5
5 6 6 7 7 8 8 7 7 7 6 6 5 5 5 5 5 5 4 3 3 2 1 1 1 1 2 2 2 2 2 1 1 3 3 5 6 6 6 6 6 6 6
5 5 5 6 7 6 6 7 7 7 7 6 6 5 5 5 4 4 3 3 3 3 2 2 2 2 2 2 3 3 2 2 2 4 4 5 6 7 7 6 6 6 7
5 3 4 5 6 6 6 7 7 7 6 6 6 5 4 4 4 3 3 3 3 3 2 2 3 2 2 3 3 3 2 2 2 4 5 6 7 7 7 7 7 7 8
3 2 3 4 4 5 5 6 6 6 6 6 6 5 4 4 3 3 3 3 3 3 3 3 3 4 4 3 3 3 2 3 2 4 5 7 7 8 8 8 8 8 8
2 3 3 3 4 5 4 5 5 6 6 6 6 5 5 4 4 4 3 3 3 3 3 4 4 4 4 3 3 3 3 3 3 4 6 7 7 8 8 8 8 8 9
3 3 3 3 4 4 5 4 4 4 5 5 5 5 4 4 4 3 3 3 3 3 3 3 3 4 4 4 3 3 3 3 4 5 6 7 8 8 8 8 8 8 9
3 3 3 3 3 4 4 4 4 4 4 4 4 4 4 3 2 3 3 3 3 4 3 3 3 3 3 4 4 3 4 4 5 5 6 7 8 8 8 8 8 9 8
2 2 2 3 3 4 4 3 3 4 4 5 5 4 4 3 3 2 2 3 3 3 3 3 3 2 3 3 3 3 3 4 4 4 5 6 7 7 7 8 8 8 7
2 2 2 3 3 4 4 3 3 4 4 4 4 5 5 4 3 3 2 2 3 3 3 3 3 2 2 3 3 4 3 3 3 3 4 4 4 5 5 6 7 7 6
3 2 2 3 3 3 3 3 3 4 4 4 5 5 6 5 4 3 2 2 4 4 3 1 1 2 2 3 3 3 3 3 3 3 2 3 3 3 4 4 5 5 5
3 2 2 2 3 3 3 3 3 4 4 4 5 5 6 6 5 4 2 3 4 3 2 2 1 1 2 3 3 3 2 2 2 2 2 2 2 3 3 4 4 5 5
2 2 3 3 3 3 2 3 3 3 3 4 4 5 5 6 6 5 3 4 4 2 2 2 2 2 2 3 4 3 3 3 2 1 2 2 2 2 2 2 3 4 5
2 2 2 2 2 3 2 2 2 2 2 2 3 5 6 6 6 5 4 4 4 2 3 3 2 2 2 2 2 3 3 2 1 1 1 1 1 2 2 2 2 3 4
1 1 1 1 2 2 1 1 0 0 1 1 2 4 5 5 5 4 4 3 3 3 3 3 3 2 2 2 1 2 3 3 2 2 2 1 1 1 1 2 2 3 4
2 2 2 1 1 2 2 2 2 2 2 2 2 2 4 5 4 4 3 3 3 2 3 3 3 2 2 2 1 0 1 3 4 3 2 2 2 1 1 1 2 3 4
3 2 1 1 2 1 2 2 1 0 1 1 1 2 3 4 4 4 3 3 2 2 2 3 2 2 2 2 2 1 2 2 2 4 3 1 2 2 2 2 2 3 3
2 2 2 2 1 1 1 1 1 0 1 1 2 2 3 3 4 4 3 2 2 2 2 2 3 2 2 2 2 2 2 2 2 3 5 4 3 2 2 2 1 2 3
1 2 2 2 1 1 1 0 1 2 2 2 2 2 2 2 2 3 3 2 2 2 2 2 2 2 2 2 2 2 2 2 2 3 4 5 4 3 2 1 1 2 3
Wind_Direction
169 176 161 145 137 130 126 123 118 115 114 114 113 112 110 109 109 105 100 97 96 97 96 95 90 85 83 82 86 84 81 83 82 79 72 70 75 83 89 88 82 78 82
157 165 157 145 136 132 126 124 121 118 116 116 115 114 111 109 108 106 102 97 95 96 94 93 92 86 84 81 84 85 83 82 85 82 76 71 76 84 91 93 89 88 88
138 145 147 144 136 132 126 125 124 122 120 120 117 115 114 111 110 107 103 98 96 90 89 88 85 84 82 84 85 89 88 86 86 80 76 69 81 95 100 99 101 99 95
128 129 138 141 136 132 127 126 127 125 123 121 119 115 114 113 112 109 104 96 93 89 85 81 83 83 80 75 80 90 96 94 92 78 69 53 55 114 116 108 102 114 112
110 120 129 135 135 133 130 127 128 126 124 122 120 117 114 111 112 110 105 98 93 92 87 84 88 82 74 68 68 77 90 98 98 92 66 28 321 209 158 143 141 146 142
107 115 127 129 132 131 129 126 126 127 124 122 120 118 117 113 110 107 104 101 96 97 95 92 93 87 70 59 62 62 57 80 102 118 128 271 281 257 226 217 213 200 193
116 112 125 121 127 125 121 120 119 124 122 119 115 112 110 106 102 99 98 100 98 96 94 96 90 72 51 35 35 43 37 28 115 170 205 249 264 262 244 237 233 231 220
118 107 115 114 114 121 118 114 111 110 117 115 111 106 102 99 98 94 92 93 94 92 80 69 58 33 13 353 339 336 338 341 267 218 235 255 256 261 257 250 242 245 240
94 97 90 102 101 109 110 109 106 100 99 101 102 100 97 91 89 86 81 76 69 55 47 30 2 346 340 340 341 328 309 289 248 242 254 263 265 264 262 258 251 251 249
79 87 78 83 85 84 95 98 94 91 86 84 83 82 85 85 82 78 70 62 54 41 34 20 2 351 345 349 343 339 320 287 260 252 258 265 268 266 266 263 256 256 251
70 81 85 78 75 75 80 82 82 82 77 72 69 68 69 63 66 65 57 54 47 36 26 16 3 353 351 350 341 339 336 313 277 263 261 267 270 267 266 265 260 257 254
83 65 85 82 77 72 74 71 67 68 68 64 60 58 57 55 56 57 52 43 31 24 14 4 359 359 355 347 338 340 335 315 292 277 273 277 274 270 269 268 262 260 259
96 64 57 74 72 74 72 69 63 59 56 58 54 48 52 51 43 39 35 21 13 13 6 352 358 356 351 341 332 326 311 299 285 280 282 285 283 278 275 271 266 263 261
83 55 45 69 76 75 76 73 66 60 52 48 49 50 55 50 40 30 27 15 10 2 354 351 345 339 336 327 317 310 304 295 286 283 281 284 284 283 282 277 270 266 263
91 54 34 59 67 68 72 69 64 55 54 47 47 48 54 55 38 28 20 18 9 4 358 347 340 334 327 319 315 309 297 291 288 286 286 289 287 284 283 282 280 274 265
98 63 49 70 68 67 67 64 61 52 55 53 44 41 49 54 46 31 18 14 5 356 347 341 333 325 316 316 316 313 299 297 294 294 292 294 293 287 283 284 284 283 279
113 83 96 100 78 71 65 57 59 50 55 51 37 36 44 47 46 44 24 4 349 348 350 350 347 349 336 332 318 312 308 305 304 296 295 294 295 296 293 293 293 288 288
109 84 83 95 87 71 66 57 54 52 54 46 39 34 32 34 39 45 33 1 352 356 358 339 342 340 330 323 312 308 310 311 301 296 302 305 298 296 298 298 299 299 302
110 100 77 77 80 70 63 64 56 50 52 45 41 35 27 25 28 36 31 3 360 3 359 336 342 327 310 314 303 302 304 296 292 306 312 311 305 299 302 305 303 303 310
106 98 86 69 58 55 57 54 46 39 38 35 34 28 27 27 26 29 30 12 10 3 352 343 324 326 307 311 312 313 302 291 288 284 287 314 329 318 316 320 320 317 317
112 103 95 80 58 57 48 48 36 17 359 6 23 23 24 24 25 28 21 15 13 1 342 335 331 328 331 339 338 327 316 297 287 285 294 306 336 331 340 338 328 324 321
160 135 111 100 77 66 59 70 94 52 346 340 5 18 19 19 19 26 26 13 8 355 351 350 353 338 335 5 3 341 330 326 328 310 310 303 294 344 342 328 317 318 313
196 193 178 143 99 80 72 59 36 39 17 4 359 358 359 6 12 21 20 13 10 4 351 344 342 343 326 329 342 305 311 291 312 312 316 328 329 326 300 323 309 305 305
216 197 176 140 109 97 104 96 88 90 275 282 299 315 335 354 2 8 11 9 7 359 347 331 339 318 314 312 311 275 252 254 279 304 305 316 324 305 293 310 316 312 315
194 181 187 148 128 117 114 133 135 259 255 288 314 325 334 341 349 351 353 356 351 343 329 328 331 329 301 285 290 296 287 280 248 260 287 301 312 291 300 305 320 326 329
181 172 179 159 165 132 136 164 203 238 264 296 311 310 313 317 323 332 339 338 331 324 314 312 313 316 307 295 288 282 273 268 262 254 269 287 292 289 298 300 295 308 326
Height
1521 1523 1525 1527 1529 1530 1531 1532 1533 1534 1535 1536 1536 1537 1538 1538 1539 1539 1539 1540 1540 1540 1541 1541 1541 1541 1541 1542 1542 1542 1542 1542 1542 1543 1543 1543 1543 1543 1543 1543 1544 1544 1544
1520 1523 1525 1527 1528 1530 1531 1532 1533 1534 1535 1536 1537 1537 1538 1538 1539 1539 1540 1540 1540 1541 1541 1541 1541 1542 1542 1542 1542 1543 1543 1543 1543 1543 1543 1543 1544 1544 1544 1544 1544 1544 1544
1520 1522 1524 1526 1528 1530 1531 1532 1533 1534 1535 1536 1537 1537 1538 1538 1539 1539 1540 1540 1541 1541 1541 1542 1542 1542 1542 1542 1543 1543 1543 1543 1543 1544 1544 1544 1544 1544 1544 1544 1544 1545 1545
1520 1522 1524 1526 1528 1529 1531 1532 1533 1534 1535 1536 1537 1537 1538 1538 1539 1539 1540 1540 1541 1541 1541 1542 1542 1542 1542 1542 1543 1543 1543 1543 1544 1544 1544 1544 1544 1544 1544 1544 1545 1545 1545
1520 1522 1524 1526 1528 1529 1530 1532 1533 1534 1535 1536 1536 1537 1538 1538 1539 1539 1540 1540 1540 1541 1541 1541 1542 1542 1542 1542 1543 1543 1543 1543 1543 1544 1544 1544 1544 1544 1544 1544 1544 1545 1544
1520 1522 1524 1525 1527 1529 1530 1531 1532 1533 1534 1535 1536 1537 1537 1538 1538 1539 1539 1539 1540 1540 1540 1541 1541 1541 1542 1542 1542 1542 1543 1543 1543 1543 1543 1543 1543 1544 1544 1544 1544 1544 1544
1519 1521 1523 1525 1526 1528 1529 1530 1531 1532 1533 1534 1535 1536 1537 1537 1538 1538 1538 1539 1539 1539 1540 1540 1540 1540 1541 1541 1541 1542 1542 1542 1542 1542 1543 1543 1543 1543 1543 1543 1543 1543 1543
1519 1521 1523 1524 1526 1527 1528 1529 1530 1531 1533 1534 1534 1535 1536 1536 1537 1537 1537 1538 1538 1538 1538 1539 1539 1539 1539 1540 1540 1540 1541 1541 1541 1541 1541 1542 1542 1542 1542 1542 1542 1542 1542
1519 1521 1522 1524 1525 1527 1528 1529 1530 1531 1532 1533 1534 1534 1535 1535 1536 1536 1536 1537 1537 1537 1537 1537 1538 1538 1538 1538 1538 1539 1539 1539 1539 1539 1540 1540 1540 1540 1540 1540 1540 1540 1540
1519 1520 1521 1523 1524 1526 1527 1529 1529 1530 1531 1532 1533 1533 1534 1534 1535 1535 1535 1535 1535 1536 1536 1536 1536 1536 1536 1536 1537 1537 1537 1537 1537 1538 1538 1538 1538 1538 1538 1538 1538 1538 1538
1518 1520 1521 1522 1524 1525 1527 1528 1529 1530 1530 1531 1532 1532 1533 1533 1533 1534 1534 1534 1534 1534 1534 1534 1534 1534 1534 1535 1535 1535 1535 1535 1535 1535 1536 1536 1536 1536 1536 1536 1536 1536 1536
1517 1519 1520 1521 1523 1524 1526 1527 1528 1529 1530 1530 1531 1531 1532 1532 1532 1532 1532 1532 1532 1532 1532 1532 1532 1532 1532 1532 1532 1532 1532 1533 1533 1533 1533 1533 1533 1534 1534 1534 1534 1534 1534
1517 1518 1520 1521 1522 1524 1525 1526 1527 1528 1528 1529 1529 1530 1530 1531 1531 1531 1531 1531 1531 1531 1530 1530 1530 1530 1530 1530 1530 1530 1530 1530 1530 1530 1530 1530 1531 1531 1531 1531 1531 1531 1531
1516 1517 1519 1520 1522 1523 1524 1525 1526 1526 1527 1527 1528 1528 1528 1529 1529 1529 1529 1529 1528 1528 1528 1528 1528 1528 1527 1527 1527 1527 1527 1527 1527 1527 1527 1527 1527 1527 1528 1528 1528 1528 1528
1516 1517 1517 1518 1520 1522 1523 1524 1525 1525 1526 1526 1526 1527 1527 1527 1527 1527 1527 1527 1526 1526 1526 1525 1525 1525 1525 1524 1524 1524 1524 1523 1523 1523 1524 1524 1524 1524 1524 1524 1524 1524 1524
1516 1517 1518 1519 1520 1521 1522 1523 1523 1524 1524 1524 1525 1525 1525 1525 1525 1525 1525 1524 1524 1524 1523 1523 1523 1522 1522 1522 1521 1521 1521 1520 1520 1520 1520 1520 1520 1520 1520 1520 1520 1520 1520
1516 1517 1518 1519 1520 1520 1521 1521 1522 1522 1522 1523 1522 1523 1523 1523 1523 1523 1522 1522 1522 1521 1521 1520 1520 1520 1519 1519 1518 1518 1517 1517 1517 1516 1516 1516 1516 1516 1516 1516 1516 1516 1516
1516 1517 1518 1519 1519 1520 1520 1520 1520 1521 1521 1521 1520 1521 1520 1521 1520 1520 1520 1520 1519 1519 1518 1518 1517 1517 1516 1516 1515 1515 1514 1514 1513 1513 1513 1512 1512 1512 1512 1512 1512 1512 1512
1515 1517 1517 1517 1518 1519 1519 1519 1519 1519 1519 1519 1519 1519 1519 1518 1518 1518 1518 1517 1517 1516 1516 1515 1514 1514 1513 1512 1512 1511 1511 1510 1510 1510 1509 1509 1509 1509 1508 1508 1508 1508 1508
1515 1516 1516 1517 1518 1518 1518 1518 1518 1518 1518 1518 1518 1518 1518 1517 1517 1516 1516 1515 1514 1514 1513 1512 1512 1511 1511 1510 1509 1508 1507 1507 1507 1506 1506 1506 1505 1505 1505 1504 1504 1504 1504
1515 1515 1515 1516 1516 1516 1517 1517 1517 1517 1517 1517 1516 1516 1516 1516 1515 1514 1513 1513 1512 1511 1511 1510 1509 1508 1508 1507 1506 1505 1504 1504 1503 1503 1503 1502 1502 1502 1501 1501 1500 1500 1500
1514 1514 1515 1515 1516 1515 1516 1516 1516 1516 1516 1516 1515 1515 1514 1514 1513 1512 1511 1511 1510 1509 1508 1507 1506 1506 1505 1505 1504 1502 1501 1501 1500 1500 1499 1499 1498 1498 1498 1497 1497 1496 1495
1513 1514 1514 1515 1515 1515 1515 1515 1515 1515 1515 1515 1515 1514 1513 1513 1512 1511 1510 1509 1508 1507 1506 1505 1504 1503 1503 1502 1502 1502 1501 1499 1498 1497 1496 1496 1495 1495 1494 1493 1492 1492 1491
1512 1512 1513 1513 1513 1514 1514 1514 1514 1514 1514 1513 1513 1512 1511 1511 1510 1509 1508 1507 1506 1505 1504 1503 1502 1502 1501 1500 1500 1499 1500 1498 1497 1494 1494 1493 1493 1491 1490 1490 1489 1488 1487
1510 1511 1512 1512 1512 1512 1512 1512 1512 1512 1511 1511 1510 1510 1509 1508 1507 1507 1506 1505 1504 1503 1502 1501 1500 1499 1498 1498 1497 1496 1496 1495 1495 1493 1490 1489 1489 1488 1487 1486 1485 1484 1483
1508 1509 1510 1510 1510 1510 1510 1510 1510 1510 1509 1508 1508 1507 1506 1506 1505 1504 1503 1502 1501 1500 1499 1498 1497 1497 1496 1495 1494 1494 1493 1492 1491 1490 1488 1485 1484 1483 1483 1482 1481 1480 1479